sat.trackr.live / text

‹ back to catalog

YAOGAN-43 01A

NORAD 60458 · 2024-148A

PAYLOAD ACTIVE UNKNOWN

§ Identity

Operator
Country
PRC
Launch date
2024-08-16
Launch site
XICLF
Launch vehicle
Mass (kg)
RCS (m²)

External: N2YO · Heavens-Above · Gunter

§ Orbital elements

Epoch: 2026-09-22T23:46:37.069248Z

Period
93.61 min
Inclination
35.0036°
Eccentricity
0.0002606
Mean motion
15.38225835 rev/d
Perigee alt
449.6 km
Apogee alt
453.1 km
Semi-major
6,829.5 km
B*
3.2030e-4
RAAN
230.3629°
Arg perigee
8.3155°
Mean anomaly
351.7607°
Rev number
11,750

§ Raw data

YAOGAN-43 01A1 60458U 24148A   26265.99070682  .00012375  00000+0  32030-3 0  99922 60458  35.0036 230.3629 0002606   8.3155 351.7607 15.38225835117508

JSON: /api/v1/satellites/60458 · /tle

For live sub-satellite position, see the globe view (requires WebGL).

§ Visibility from observer

Set your observer location to see the next 7 days of passes ≥ 10°. The values pass through the URL so the page stays shareable.

No JS? Fill the form by hand. The geolocation button needs JavaScript.